SCP
-0 0 0 0 0 0 0 0 0 0 0 0 0 0 0 0 -0 0 0 0 0 0 0 0 0 0 1 1 0 0 1 0
-0 0 0 0 0 0 0 0 0 0 0 0 0 0 0 0 0 0 0 0 0 0 0 0 0 0 0 0 0 0 0 0
0 0 0 0 0 0 0 0 0 0 0 0 0 0 0 0 0 0 0 0 0 0 -0 0 0 0 0 0 0 0 1 0
0 0 0 0 0 0 0 0 0 0 0 0 0 0 0 0 0 0 0 0 0 0 0 0 0 0 0 0 0 0 0 0
0 0 0 0 0 0 0 0 0 0 0 0 0 0 0 0 0 0 0 0 0 0 0 -0 -0 0 0 0 0 -0 0 0
0 0 0 0 0 0 0 0 0 0 0 0 0 0 0 0 0 0 0 0 0 0 0 0 0 0 0 0 0 0 0 0
0 0 0 0 0 0 0 0 0 0 0 0 0 0 0 0 0 0 0 0 0 0 0 0 0 0 0 0 0 0 0 0
0 0 0 0 0 0 0 0 0 0 0 0 0 0 0 0 0 0 0 0 0 0 0 0 0 0 0 0 0 0 0 0
0 0 0 0 0 0 0 0 0 0 0 0 0 0 0 0 0 0 0 0 0 0 0 0 0 0 0 0 0 0 0 0
0 0 0 0 0 0 0 0 0 0 0 0 0 0 0 0 0 0 0 0 0 0 0 0 0 0 0 0 0 0 0 0
0 0 0 0 0 0 0 0 0 0 0 0 0 0 0 0 0 0 0 0 0 0 0 0 0 0 0 0 0 0 0 0
0 0 0 0 0 0 0 0 0 0 0 -0 0 0 0 0 0 0 0 0 0 0 0 0 0 0 0 0 0 0 0 0
0 0 0 0 0 0 -0 -0 -0 -0 -0 -0 -0 -0 -0 0 0 0 0 0 0 0 0 0 0 0 0 0 0 0 0 0
0 0 0 0 0 0 -0 -0 -0 -0 -0 -0 -0 -0 -0 -0 0 0 0 0 0 0 0 0 0 0 0 0 0 0 0 0
0 0 0 0 0 0 0 -0 -0 -0 -0 -0 -0 0 0 0 0 0 0 0 0 0 0 0 0 0 0 0 0 0 0 0
0 0 0 0 0 0 0 0 -0 -0 -0 0 0 0 0 0 0 0 0 0 0 0 0 0 0 0 0 0 0 0 0 0
0 0 0 0 0 0 0 0 0 0 0 0 0 0 0 0 0 0 0 0 0 0 0 0 0 0 0 0 0 0 0 0
0 0 0 0 0 0 0 0 0 0 0 0 0 0 0 0 0 0 0 0 0 0 0 0 0 0 0 0 0 0 0 0
0 0 0 0 0 0 0 0 0 0 0 0 0 0 0 0 0 0 0 0 0 0 0 0 0 0 0 0 0 0 0 0
0 0 0 0 0 0 0 0 0 0 0 0 0 0 0 0 0 0 0 0 0 0 0 0 0 0 0 0 0 0 0 0
Wind_Speed_500mb
37 35 33 26 22 22 24 16 10 6 5 5 7 11 17 21 23 28 28 35 42 59 60 48 41 29 21 26 33 21 34 35
39 29 29 27 23 20 9 9 6 8 8 8 11 12 13 20 28 25 30 41 41 50 54 54 44 38 48 33 30 21 31 33
21 16 18 20 16 7 1 1 4 2 7 11 12 16 23 28 27 23 23 22 25 31 39 28 12 16 18 20 21 18 31 36
18 16 11 12 4 6 8 8 7 12 15 15 18 20 17 15 13 12 16 10 12 20 7 6 10 20 21 19 32 21 14 29
12 7 2 5 8 14 10 7 10 9 10 7 10 10 8 6 11 10 11 9 7 8 13 19 27 20 20 25 22 19 22 18
16 14 15 17 14 14 14 15 12 12 8 5 6 4 3 4 2 1 5 10 13 17 21 26 27 25 19 24 30 35 42 46
17 15 14 19 22 20 18 14 15 17 11 6 4 7 3 2 4 6 9 17 18 23 28 31 32 33 31 28 30 31 37 40
26 22 22 19 19 21 23 22 20 11 2 9 6 11 6 3 7 11 16 21 25 26 29 33 35 36 38 38 39 35 36 45
24 27 26 25 25 24 25 21 20 6 2 2 4 7 6 11 15 19 23 27 31 35 37 39 39 39 38 40 43 42 40 44
24 23 23 25 26 28 26 27 25 24 20 14 13 14 19 23 26 29 33 39 43 45 48 50 52 52 48 46 44 44 40 35
23 20 22 22 26 31 31 32 31 30 28 23 20 21 24 27 30 34 36 39 41 45 47 49 50 51 54 55 53 49 49 43
21 17 18 21 30 32 35 38 39 40 41 42 41 37 36 36 38 39 39 38 37 37 38 39 40 41 41 38 36 40 44 45
25 17 15 19 24 29 33 38 44 50 52 49 43 38 35 34 32 31 30 29 30 30 30 29 30 32 30 29 27 26 25 28
30 23 14 12 16 24 36 43 50 54 53 47 41 37 36 35 34 31 28 24 24 24 24 24 25 26 25 25 24 24 24 22
35 25 13 6 12 26 37 45 52 55 50 43 36 30 29 32 32 31 30 27 25 24 24 21 22 24 24 28 29 29 32 33
36 25 13 2 13 23 34 45 51 53 49 39 28 24 25 26 28 29 29 26 25 25 23 21 18 21 22 22 22 24 26 28
36 25 10 3 11 21 32 39 45 47 42 31 24 23 26 26 23 26 25 25 24 22 20 18 19 18 22 22 24 22 25 26
35 23 10 3 11 22 30 36 41 39 29 23 27 25 26 22 22 25 27 27 28 23 14 13 17 21 22 23 24 26 26 26
36 23 12 7 16 25 28 34 37 33 26 25 28 24 21 22 26 29 34 36 34 36 31 24 21 22 23 24 28 32 34 34
31 21 10 9 18 24 26 30 33 31 25 28 32 32 29 27 33 34 40 43 45 45 42 38 34 30 29 35 39 40 39 32
Wind_Direction_500mb
158 144 132 136 124 118 126 145 152 128 79 25 14 17 2 360 344 336 325 307 300 294 284 279 266 263 279 287 284 287 300 298
164 150 149 149 136 118 107 122 75 63 35 22 19 9 330 320 314 317 306 305 301 294 294 280 278 265 277 255 301 296 301 302
182 187 164 165 172 169 311 345 179 48 331 320 317 305 315 329 332 318 310 315 323 311 295 299 268 341 279 291 289 302 314 315
191 203 203 210 242 297 330 283 276 341 320 329 326 328 350 343 10 43 46 45 296 344 354 291 12 347 329 304 264 261 305 300
131 99 327 327 317 342 349 346 345 331 328 347 344 27 38 48 72 67 58 36 360 322 314 303 303 309 285 271 274 260 264 270
78 65 47 39 23 358 0 25 24 11 36 33 80 109 248 310 15 131 272 278 292 296 291 291 293 293 286 273 279 277 273 274
64 53 45 37 37 21 7 1 351 341 321 57 142 148 181 203 290 283 291 292 300 300 299 298 297 292 291 277 269 264 264 263
66 63 54 43 33 8 352 340 349 332 27 137 131 141 189 277 299 297 297 295 295 293 292 291 292 291 290 286 282 276 273 265
78 69 65 67 68 67 60 56 65 70 235 237 259 291 307 301 302 299 295 292 291 292 292 294 295 295 293 291 291 291 286 281
93 80 71 59 57 54 48 43 42 40 36 24 351 334 314 310 307 305 300 299 298 296 296 294 294 295 294 295 296 291 283 286
106 90 72 57 51 41 31 23 15 10 8 0 344 324 312 301 301 308 311 310 306 304 305 305 305 301 296 294 295 296 297 292
125 104 81 54 41 25 14 7 2 359 354 349 345 342 336 335 332 329 329 326 324 320 316 316 319 318 321 317 303 293 290 291
145 129 96 62 34 17 11 5 358 356 352 351 351 350 351 349 345 341 338 339 338 339 336 335 339 342 344 344 341 339 328 311
158 154 126 63 28 11 4 359 356 354 353 352 352 355 356 356 356 357 0 360 2 5 4 4 7 2 4 11 13 5 357 343
163 161 148 92 15 359 352 349 349 350 349 349 353 359 6 7 10 10 7 8 9 10 9 11 13 19 25 22 17 10 9 4
170 174 175 101 351 345 341 343 345 344 342 345 350 356 3 7 8 7 1 359 358 3 8 9 16 22 27 20 14 19 14 15
178 179 172 329 340 334 332 337 339 337 342 353 4 1 1 3 1 355 357 355 353 350 352 3 11 15 16 16 15 19 14 18
178 177 183 256 325 328 335 343 343 342 352 2 6 360 0 13 7 1 357 355 349 341 344 355 2 5 7 21 24 24 15 13
177 179 195 275 322 336 348 348 345 346 356 15 4 2 34 33 22 35 38 37 41 44 48 39 28 28 37 34 35 34 33 33
178 185 207 289 326 344 345 350 351 6 41 32 36 61 61 55 45 51 61 56 54 55 52 49 46 47 50 58 50 43 34 25
Wind_Speed_850mb
37 35 33 26 22 22 24 16 10 6 5 5 7 11 17 21 23 28 28 35 42 59 60 48 41 29 21 26 33 21 34 35
39 29 29 27 23 20 9 9 6 8 8 8 11 12 13 20 28 25 30 41 41 50 54 54 44 38 48 33 30 21 31 33
21 16 18 20 16 7 1 1 4 2 7 11 12 16 23 28 27 23 23 22 25 31 39 28 12 16 18 20 21 18 31 36
18 16 11 12 4 6 8 8 7 12 15 15 18 20 17 15 13 12 16 10 12 20 7 6 10 20 21 19 32 21 14 29
12 7 2 5 8 14 10 7 10 9 10 7 10 10 8 6 11 10 11 9 7 8 13 19 27 20 20 25 22 19 22 18
16 14 15 17 14 14 14 15 12 12 8 5 6 4 3 4 2 1 5 10 13 17 21 26 27 25 19 24 30 35 42 46
17 15 14 19 22 20 18 14 15 17 11 6 4 7 3 2 4 6 9 17 18 23 28 31 32 33 31 28 30 31 37 40
26 22 22 19 19 21 23 22 20 11 2 9 6 11 6 3 7 11 16 21 25 26 29 33 35 36 38 38 39 35 36 45
24 27 26 25 25 24 25 21 20 6 2 2 4 7 6 11 15 19 23 27 31 35 37 39 39 39 38 40 43 42 40 44
24 23 23 25 26 28 26 27 25 24 20 14 13 14 19 23 26 29 33 39 43 45 48 50 52 52 48 46 44 44 40 35
23 20 22 22 26 31 31 32 31 30 28 23 20 21 24 27 30 34 36 39 41 45 47 49 50 51 54 55 53 49 49 43
21 17 18 21 30 32 35 38 39 40 41 42 41 37 36 36 38 39 39 38 37 37 38 39 40 41 41 38 36 40 44 45
25 17 15 19 24 29 33 38 44 50 52 49 43 38 35 34 32 31 30 29 30 30 30 29 30 32 30 29 27 26 25 28
30 23 14 12 16 24 36 43 50 54 53 47 41 37 36 35 34 31 28 24 24 24 24 24 25 26 25 25 24 24 24 22
35 25 13 6 12 26 37 45 52 55 50 43 36 30 29 32 32 31 30 27 25 24 24 21 22 24 24 28 29 29 32 33
36 25 13 2 13 23 34 45 51 53 49 39 28 24 25 26 28 29 29 26 25 25 23 21 18 21 22 22 22 24 26 28
36 25 10 3 11 21 32 39 45 47 42 31 24 23 26 26 23 26 25 25 24 22 20 18 19 18 22 22 24 22 25 26
35 23 10 3 11 22 30 36 41 39 29 23 27 25 26 22 22 25 27 27 28 23 14 13 17 21 22 23 24 26 26 26
36 23 12 7 16 25 28 34 37 33 26 25 28 24 21 22 26 29 34 36 34 36 31 24 21 22 23 24 28 32 34 34
31 21 10 9 18 24 26 30 33 31 25 28 32 32 29 27 33 34 40 43 45 45 42 38 34 30 29 35 39 40 39 32
Wind_Direction_850mb
158 144 132 136 124 118 126 145 152 128 79 25 14 17 2 360 344 336 325 307 300 294 284 279 266 263 279 287 284 287 300 298
164 150 149 149 136 118 107 122 75 63 35 22 19 9 330 320 314 317 306 305 301 294 294 280 278 265 277 255 301 296 301 302
182 187 164 165 172 169 311 345 179 48 331 320 317 305 315 329 332 318 310 315 323 311 295 299 268 341 279 291 289 302 314 315
191 203 203 210 242 297 330 283 276 341 320 329 326 328 350 343 10 43 46 45 296 344 354 291 12 347 329 304 264 261 305 300
131 99 327 327 317 342 349 346 345 331 328 347 344 27 38 48 72 67 58 36 360 322 314 303 303 309 285 271 274 260 264 270
78 65 47 39 23 358 0 25 24 11 36 33 80 109 248 310 15 131 272 278 292 296 291 291 293 293 286 273 279 277 273 274
64 53 45 37 37 21 7 1 351 341 321 57 142 148 181 203 290 283 291 292 300 300 299 298 297 292 291 277 269 264 264 263
66 63 54 43 33 8 352 340 349 332 27 137 131 141 189 277 299 297 297 295 295 293 292 291 292 291 290 286 282 276 273 265
78 69 65 67 68 67 60 56 65 70 235 237 259 291 307 301 302 299 295 292 291 292 292 294 295 295 293 291 291 291 286 281
93 80 71 59 57 54 48 43 42 40 36 24 351 334 314 310 307 305 300 299 298 296 296 294 294 295 294 295 296 291 283 286
106 90 72 57 51 41 31 23 15 10 8 0 344 324 312 301 301 308 311 310 306 304 305 305 305 301 296 294 295 296 297 292
125 104 81 54 41 25 14 7 2 359 354 349 345 342 336 335 332 329 329 326 324 320 316 316 319 318 321 317 303 293 290 291
145 129 96 62 34 17 11 5 358 356 352 351 351 350 351 349 345 341 338 339 338 339 336 335 339 342 344 344 341 339 328 311
158 154 126 63 28 11 4 359 356 354 353 352 352 355 356 356 356 357 0 360 2 5 4 4 7 2 4 11 13 5 357 343
163 161 148 92 15 359 352 349 349 350 349 349 353 359 6 7 10 10 7 8 9 10 9 11 13 19 25 22 17 10 9 4
170 174 175 101 351 345 341 343 345 344 342 345 350 356 3 7 8 7 1 359 358 3 8 9 16 22 27 20 14 19 14 15
178 179 172 329 340 334 332 337 339 337 342 353 4 1 1 3 1 355 357 355 353 350 352 3 11 15 16 16 15 19 14 18
178 177 183 256 325 328 335 343 343 342 352 2 6 360 0 13 7 1 357 355 349 341 344 355 2 5 7 21 24 24 15 13
177 179 195 275 322 336 348 348 345 346 356 15 4 2 34 33 22 35 38 37 41 44 48 39 28 28 37 34 35 34 33 33
178 185 207 289 326 344 345 350 351 6 41 32 36 61 61 55 45 51 61 56 54 55 52 49 46 47 50 58 50 43 34 25